Clayton Lake, ME

4:43 PM EDT on April 25, 2017 (GMT -0400)
Clayton Lake

Weather History for K40B - May, 2013

Change the Weather History Date:

Saturday, May 25, 2013

  Actual Average Record
Temperature  
Mean Temperature 40 °F -  
Max Temperature 43 °F 61 °F 83 °F (2016)
Min Temperature 37 °F 38 °F 30 °F (2002)
Degree Days  
Heating Degree Days 25    
Moisture  
Dew Point 40 °F    
Average Humidity 99    
Maximum Humidity 100    
Minimum Humidity 88    
Precipitation  
Precipitation 0.86 in - - ()
Sea Level Pressure  
Sea Level Pressure 30.00 in    
Wind  
Wind Speed 3 mph (North)    
Max Wind Speed 9 mph    
Max Gust Speed 21 mph    
Averages and records for this station are not official NWS values.
T = Trace of Precipitation, MM = Missing Value Source: NWS Daily Summary

Daily Weather History Graph

Daily Weather History Graph

Search for Another Location

Airport or City:

Trip Planner

Search our weather history database for the weather conditions in past years. The results will help you decide how hot, cold, wet, or windy it might be!

Date:

Astronomy

May. 25, 2013 Rise Set
Actual Time 4:53 AM EDT 8:17 PM EDT
Civil Twilight 4:16 AM EDT 8:54 PM EDT
Nautical Twilight 3:27 AM EDT 9:43 PM EDT
Astronomical Twilight 2:24 AM EDT 10:47 PM EDT
Moon 9:00 PM EDT 5:18 AM EDT
Length of Visible Light 16h 38m
Length of Day
15h 23m
Full, 100% of the Moon is Illuminated
May 25
Full
May 31
Last Quarter
Jun 8
New
Jun 16
First Quarter
Jun 23
Full

Hourly Weather History & Observations

Time (EDT) Temp. Windchill Dew Point Humidity Pressure Visibility Wind Dir Wind Speed Gust Speed Precip Events Conditions
12:25 AM 43.0 °F - 43.3 °F 100% 30.00 in - Calm Calm - 0.01 in   Unknown
1:25 AM 42.8 °F - 43.3 °F 100% 29.99 in - Calm Calm - N/A   Unknown
2:25 AM 43.0 °F - 43.7 °F 100% 29.99 in - Calm Calm - N/A   Unknown
3:25 AM 43.2 °F - 43.7 °F 100% 30.01 in - Calm Calm - 0.01 in   Unknown
4:25 AM - - - N/A% 30.02 in - Variable 2.3 mph - 0.04 in   Unknown
5:25 AM 42.6 °F 40.9 °F 42.3 °F 99% 30.04 in - Variable 3.5 mph 13.8 mph 0.06 in   Unknown
6:25 AM 41.5 °F 36.4 °F 41.0 °F 98% 30.04 in - North 8.1 mph 15.0 mph 0.02 in   Unknown
7:25 AM 41.0 °F 37.1 °F 41.0 °F 100% 30.04 in - Variable 5.8 mph 16.1 mph 0.01 in   Unknown
8:25 AM 40.6 °F 36.7 °F 40.6 °F 100% 30.04 in - Variable 5.8 mph - N/A   Unknown
9:25 AM 41.7 °F 37.3 °F 41.4 °F 99% 30.02 in - Variable 6.9 mph 16.1 mph 0.01 in   Unknown
10:25 AM 41.7 °F 38.0 °F 40.5 °F 95% 30.02 in - Variable 5.8 mph 16.1 mph 0.00 in   Unknown
11:25 AM 41.5 °F 37.1 °F 38.3 °F 88% 30.02 in - NNE 6.9 mph 15.0 mph N/A   Unknown
12:25 PM 41.0 °F 39.0 °F 40.6 °F 99% 30.01 in - Variable 3.5 mph 13.8 mph 0.00 in   Unknown
1:25 PM 41.4 °F 38.4 °F 41.0 °F 99% 30.01 in - Variable 4.6 mph 15.0 mph 0.04 in   Unknown
2:25 PM 41.0 °F 39.0 °F 41.2 °F 100% 30.01 in - Variable 3.5 mph 15.0 mph 0.05 in   Unknown
3:25 PM 39.7 °F 34.9 °F 39.6 °F 99% 29.99 in - Variable 6.9 mph 17.3 mph 0.10 in   Unknown
4:25 PM 39.9 °F 33.9 °F 39.6 °F 99% 29.98 in - North 9.2 mph 20.7 mph 0.10 in   Unknown
5:25 PM 39.2 °F 35.9 °F 39.0 °F 99% 29.98 in - Variable 4.6 mph 17.3 mph 0.10 in   Unknown
6:25 PM 38.1 °F 33.7 °F 38.3 °F 100% 29.97 in - Variable 5.8 mph 17.3 mph 0.10 in   Unknown
7:25 PM 37.6 °F 34.0 °F 37.6 °F 100% 29.98 in - Variable 4.6 mph 16.1 mph 0.05 in   Unknown
8:25 PM 37.4 °F 32.8 °F 37.6 °F 100% 29.97 in - Variable 5.8 mph 16.1 mph 0.07 in   Unknown
9:25 PM 37.6 °F 32.3 °F 37.8 °F 100% 29.94 in - Variable 6.9 mph 20.7 mph 0.02 in   Unknown
10:25 PM 37.9 °F 34.4 °F 38.3 °F 100% 29.93 in - Variable 4.6 mph - N/A   Unknown
11:25 PM - - - N/A% 29.91 in - Variable 3.5 mph - 0.08 in   Unknown